Погода в Пьяченце

Италия     45°02′33″N   9°40′47″E
темп.,
°C
ветер,
м/с
пор.,
м/с
влажн.,
%
обл.,
%
осадки,
мм/ч
давл.,
гПа
погр.,
м
16 апреля, пт
пт1623:00+5вюв228234 0.0 102144
02:00+3вюв238736 0.0 102135
05:00+2вюв238694 0.0 102039
08:00+4в237987 0.0 1020126
11:00+9в4661100 0.0 1020852
14:00+12в465157 0.0 10191887
17:00+11вюв456385 0.0 1018924
20:00+8в22772 0.0 101813
17 апреля, сб
сб1723:00+5ю12824 0.0 101911
02:00+4юз11825 0.0 101911
05:00+3юз11805 0.0 101710
08:00+5зюз1175100 0.0 101852
11:00+10св2264100 0.0 1017590
14:00+13в345398 0.0 10151308
17:00+13вюв345562 0.0 10141144
20:00+9вюв227557 0.0 101414
18 апреля, вс
вс1823:00+7ю337371 0.0 101527
02:00+6ююв126695 0.0 101513
05:00+6вюв2369100 0.0 101554
08:00+8вюв2372100 0.0 1015105
11:00+11вюв566892 0.0 1016761
14:00+13в556484 0.0 10151303
17:00+12в4468100 0.0 1014952
20:00+9всв3785100 0.1 1015180
19 апреля, пн
пн1923:00+7вюв2390100 0.0 101656
02:00+5в229275 0.0 101631
05:00+6вюв1285100 0.0 101651
08:00+8зсз008142 0.0 1016105
11:00+12ссз21655 0.0 1015768
14:00+15сз235321 0.0 10141584
17:00+16зсз23528 0.0 10121522
20:00+11св016710 0.0 101210
20 апреля, вт
вт2023:00+10ююз33732 0.0 101348
02:00+7юз11764 0.0 101418
05:00+6юз11775 0.0 101412
08:00+8ююз11725 0.0 101460
11:00+14всв11605 0.0 1014639
14:00+17с115221 0.1 10131279
17:00+17ююз1254100 0.5 10111385
20:00+12ююз237444 1.1 101136